Dewpoint
0 -2 -1 2 2 4 6 6 6 7 9 10 10 10 9 9 6 7 8 9 10 10 10 10 11 12 12 10 11 12 12 11 12 13 12 11 10 10 8 10 10 10 11
-5 -5 -4 -1 -0 1 3 5 6 8 10 10 11 10 9 9 7 7 7 8 9 10 11 11 11 12 12 10 10 10 8 7 9 11 11 10 10 10 10 10 10 11 11
-5 -4 -5 -5 -6 -6 -5 -0 4 7 9 10 11 10 10 9 7 7 7 8 9 10 10 11 11 11 10 8 8 9 9 9 8 9 10 9 10 10 10 10 10 10 10
-5 -6 -9 -8 -9 -7 -6 -3 2 6 9 10 10 10 10 10 8 7 7 8 9 9 10 11 10 10 9 7 7 8 9 10 10 9 8 10 9 10 10 10 10 10 10
-9 -12 -10 -8 -8 -9 -6 -3 1 5 8 9 10 9 10 10 9 7 8 9 9 10 10 10 9 9 8 7 7 9 10 10 9 10 10 10 10 10 10 9 8 8 8
-11 -12 -11 -10 -9 -11 -8 -4 -0 4 6 8 8 8 10 11 9 8 8 7 8 8 10 9 9 9 8 8 9 9 10 10 10 10 10 10 8 6 5 6 7 7 8
-11 -12 -11 -11 -10 -12 -12 -6 -2 2 4 6 6 7 10 11 10 8 6 5 5 8 10 9 9 9 8 9 10 10 10 10 10 8 10 9 7 6 5 7 8 9 10
-11 -10 -10 -10 -10 -10 -10 -8 -2 2 3 4 4 7 10 11 10 9 6 4 4 5 5 9 9 10 8 9 9 10 10 10 10 7 7 7 7 6 7 8 9 10 10
-9 -10 -9 -10 -9 -9 -8 -8 -4 1 3 4 5 7 10 11 11 9 7 6 5 4 5 7 9 9 7 8 9 9 11 9 9 10 7 7 8 8 7 8 9 10 9
-8 -8 -8 -8 -8 -7 -7 -6 -5 -2 2 4 4 6 9 10 11 10 8 8 8 5 5 5 10 7 7 7 8 9 11 9 9 8 8 8 10 9 8 7 6 7 8
-6 -7 -6 -5 -5 -5 -6 -5 -3 -1 -0 3 4 5 8 9 11 11 10 8 9 6 5 5 9 5 4 6 7 9 9 9 9 9 9 9 9 10 10 9 7 6 7
-5 -6 -5 -4 -4 -3 -4 -4 -2 -1 1 1 3 3 5 7 9 10 11 10 10 7 6 7 7 5 7 7 7 5 3 5 9 10 9 9 9 9 9 9 7 6 7
-0 -2 -4 -5 -4 -4 -3 -2 -2 -0 0 2 2 2 3 6 9 9 10 10 11 8 6 6 7 6 6 7 7 7 6 6 8 9 10 9 9 10 10 9 9 6 5
2 2 3 3 1 -1 -3 -2 -2 -1 -0 1 2 3 3 5 7 8 10 10 11 10 7 6 5 5 6 7 7 6 8 9 7 8 10 10 8 9 10 10 8 8 5
6 4 4 4 5 5 3 -2 -2 -1 0 1 2 3 5 5 5 7 9 10 11 11 9 7 6 6 6 6 7 7 8 8 7 8 9 10 8 9 10 9 8 9 6
7 6 5 6 6 7 7 5 -0 -2 -1 0 1 2 4 5 5 7 8 9 10 11 11 9 8 7 7 7 6 8 8 7 8 7 8 10 8 8 10 9 8 9 7
-6 5 7 6 7 7 8 7 4 1 -0 -0 0 2 4 5 5 6 8 9 10 10 11 11 9 8 8 7 7 7 6 8 9 7 9 10 8 7 8 9 8 9 8
-7 -6 6 6 6 7 8 7 6 4 4 3 2 3 4 5 6 7 7 9 9 10 11 11 11 10 9 8 8 7 8 7 8 8 8 9 7 7 6 7 8 8 8
-10 -6 -0 6 6 4 6 8 9 8 9 9 8 7 7 6 7 8 8 9 9 10 11 11 12 11 10 9 9 9 9 9 8 8 9 9 7 7 6 4 7 8 8
-10 -7 -4 -2 -1 2 6 9 10 11 12 12 12 11 11 10 9 9 9 10 10 11 12 12 12 12 11 10 9 9 10 10 9 9 9 9 7 6 5 3 6 8 7
-9 -7 -5 -4 -4 -2 3 9 9 10 11 10 9 8 10 10 10 12 11 12 11 11 11 11 12 12 12 11 10 10 10 10 9 9 9 9 7 6 6 4 4 6 6
-5 -5 -6 -4 -4 -3 1 7 8 8 9 8 7 7 9 10 9 11 11 12 12 13 12 12 11 12 12 11 10 10 9 9 9 10 9 9 7 7 6 5 4 4 2
-1 2 -2 -2 -1 4 8 8 10 10 9 9 8 7 9 11 10 11 11 11 12 12 11 10 11 11 11 11 11 10 10 9 8 8 9 9 7 7 7 5 3 3 1
5 5 6 8 8 9 10 10 9 8 6 5 6 6 6 7 9 9 10 11 11 11 11 10 11 11 11 11 11 10 10 8 9 9 8 9 8 8 7 5 3 2 2
5 6 6 6 5 6 5 4 4 7 8 8 8 8 8 8 9 10 10 10 11 11 12 12 11 12 12 10 11 10 10 10 9 8 9 9 9 8 7 6 3 1 1
4 4 3 2 2 3 5 5 2 7 10 11 10 9 9 9 9 9 9 8 9 10 11 12 12 12 11 11 10 10 9 10 9 8 8 8 8 8 8 6 5 5 0
Wind_Speed
20 20 19 19 17 16 16 15 15 15 15 15 14 13 12 12 11 12 12 12 12 12 12 11 11 9 13 11 10 10 10 14 12 7 14 14 15 13 11 13 15 18 18
21 21 19 17 15 14 14 14 15 15 16 16 15 14 13 12 12 12 12 13 13 12 12 12 12 12 11 9 11 9 9 9 18 7 11 14 14 15 15 16 16 18 19
23 22 19 16 14 12 12 13 14 15 15 15 15 15 14 12 11 12 12 12 11 11 11 11 10 11 11 11 9 7 8 9 11 15 13 15 15 15 15 16 16 17 16
21 20 19 18 15 12 11 13 14 15 15 15 15 15 14 13 12 11 11 10 9 9 9 10 11 12 13 13 11 10 11 14 14 14 13 14 16 17 17 16 15 14 13
22 20 19 18 16 13 12 13 14 15 15 15 15 15 14 14 13 12 12 11 9 7 8 10 11 13 13 12 13 13 14 15 14 13 13 15 18 18 15 13 11 10 8
23 22 21 19 17 13 12 13 14 16 16 16 15 15 15 15 14 13 13 11 9 8 12 11 13 14 14 13 14 15 15 14 12 11 13 13 13 12 11 11 11 10 9
26 26 23 20 17 15 14 15 16 17 17 16 15 15 16 16 15 15 12 11 11 13 10 10 14 15 14 14 15 15 14 12 11 9 10 11 9 10 11 13 12 11 11
27 28 25 22 19 17 16 16 17 18 17 17 16 16 17 17 16 17 13 12 12 11 8 12 14 16 15 15 15 14 13 11 11 10 8 8 9 11 13 14 13 12 11
28 27 27 24 21 18 17 16 18 18 18 18 17 17 17 17 17 19 13 12 10 8 6 12 14 17 16 15 15 14 13 9 8 10 7 8 11 13 11 13 12 11 9
30 29 28 27 25 22 20 19 18 19 19 19 19 18 18 17 17 18 17 13 9 8 6 11 19 19 15 13 14 15 13 9 8 7 6 10 13 14 13 11 10 11 9
32 30 28 27 27 25 23 22 22 20 20 20 20 20 20 20 20 20 19 17 11 9 8 15 21 19 16 14 12 14 12 10 13 14 11 12 12 10 10 11 11 10 10
34 32 30 29 27 26 26 25 25 24 23 23 22 22 22 22 22 21 21 20 15 12 11 18 22 18 17 16 14 14 12 15 10 14 13 13 10 9 11 11 11 11 10
33 32 31 30 29 28 28 28 28 28 26 26 24 23 23 24 24 23 23 23 20 18 16 20 22 22 18 17 15 14 17 19 14 15 14 12 11 9 10 11 12 10 10
34 30 30 32 30 30 30 30 30 30 29 29 28 27 26 26 27 26 26 25 23 22 20 20 22 22 19 18 18 17 15 16 18 16 17 14 12 10 12 11 11 12 11
39 37 33 32 32 30 30 32 32 32 31 31 30 29 29 29 28 27 28 26 25 24 23 23 21 20 19 18 19 18 17 18 19 17 18 16 13 9 10 9 11 14 13
41 43 40 37 36 34 32 32 34 34 33 33 32 32 31 30 30 29 28 27 26 25 24 25 22 20 19 19 19 17 17 18 20 21 18 18 15 11 11 12 11 14 13
29 44 46 39 38 35 32 30 33 34 34 33 33 32 31 30 30 30 29 29 27 25 24 25 24 21 21 21 23 21 21 21 21 21 21 20 17 13 12 11 14 16 17
31 33 49 44 40 37 34 32 31 31 32 31 31 31 32 31 31 30 29 29 28 26 26 25 26 25 24 25 24 28 22 25 23 21 23 22 19 14 13 15 15 18 18
27 36 39 47 43 39 38 35 34 32 30 26 26 27 30 32 32 31 30 29 28 27 27 26 27 27 27 27 24 26 23 26 27 25 24 23 19 14 12 15 18 19 18
34 33 42 42 38 39 42 41 37 31 23 23 22 23 26 29 30 30 30 28 27 29 29 29 29 30 26 28 26 26 25 25 29 29 26 25 21 16 13 16 19 21 17
34 28 40 43 39 37 41 42 36 31 28 27 25 23 22 24 25 27 28 27 26 30 32 30 30 30 29 29 28 26 23 25 27 25 25 28 24 19 16 17 20 21 20
26 33 36 43 38 37 39 40 35 34 32 28 27 25 25 24 25 27 30 32 32 35 36 35 29 29 32 31 32 28 16 24 28 26 30 32 29 24 22 20 23 22 20
18 23 34 37 34 34 31 30 30 29 28 29 30 30 30 30 30 29 32 34 35 36 38 36 29 29 33 35 35 26 11 11 32 33 34 35 33 29 26 23 25 23 21
20 20 23 28 28 24 23 24 24 24 26 29 29 26 27 33 34 34 36 34 32 33 35 34 34 32 30 36 39 39 29 21 15 13 38 37 36 34 29 26 25 25 24
26 23 20 20 21 19 20 21 19 17 19 23 24 26 25 25 31 34 36 36 36 33 33 34 37 37 36 33 38 38 41 31 24 26 22 40 38 37 33 28 25 25 27
31 26 19 18 18 18 17 19 15 17 15 16 19 24 27 26 26 30 33 33 34 37 35 35 37 39 37 35 35 36 38 44 38 32 31 37 47 42 36 30 28 24 27
Wind_Direction
171 165 163 164 167 171 176 176 176 174 168 162 160 155 149 147 146 148 151 151 146 149 148 146 149 152 145 141 156 162 150 138 100 135 134 136 134 133 125 137 133 125 124
161 159 162 165 170 172 178 181 180 176 170 164 161 158 155 151 150 150 154 149 149 152 152 155 154 151 151 150 144 142 135 127 136 149 135 130 130 132 132 136 133 127 126
159 162 163 165 167 166 176 182 182 179 173 166 162 159 158 157 154 155 151 147 148 155 161 159 156 155 151 145 131 127 116 119 128 157 158 140 135 136 137 138 134 132 131
158 162 162 158 157 162 172 178 180 178 174 169 165 162 163 161 159 153 145 141 147 158 167 163 159 156 152 149 151 150 143 140 149 152 153 147 138 138 137 137 137 137 138
160 159 157 154 153 154 168 173 176 176 174 172 167 167 168 164 159 153 145 143 140 141 157 164 162 156 150 151 152 149 147 145 145 147 147 144 139 139 143 148 150 145 140
160 158 156 154 153 150 163 168 173 174 175 175 174 173 172 167 161 155 147 144 147 151 156 166 162 158 153 156 157 155 146 145 143 141 152 153 151 153 159 160 158 152 140
163 159 157 154 154 154 159 166 171 175 177 180 181 179 177 170 164 162 156 149 140 141 161 186 176 164 158 162 164 158 150 156 150 134 159 172 177 172 166 162 156 150 142
166 161 158 155 159 160 161 164 170 175 180 184 185 183 182 177 169 168 160 152 147 141 161 188 186 174 161 170 173 170 152 157 157 154 159 186 181 168 164 161 153 153 152
173 167 164 161 164 169 166 166 171 176 180 185 187 187 187 184 177 178 173 163 161 167 165 186 190 178 173 173 181 182 171 163 168 194 178 186 173 161 164 163 166 171 178
181 176 172 171 172 175 175 174 176 179 182 185 187 189 191 189 187 188 191 185 185 188 187 187 182 181 175 175 188 191 182 175 186 189 192 196 171 161 173 184 190 186 186
187 185 185 184 181 183 185 183 183 185 186 187 191 192 193 194 193 197 198 202 206 197 186 173 178 181 179 179 191 200 191 204 216 215 197 188 177 178 184 188 198 198 195
193 193 195 197 195 194 193 192 190 192 192 193 195 197 199 199 199 203 202 208 214 205 187 177 179 188 187 186 185 209 210 236 213 196 190 189 191 192 196 194 205 202 198
201 201 203 208 207 207 204 201 200 199 200 199 200 203 204 203 202 204 204 207 211 203 196 189 194 196 189 194 200 218 217 210 213 209 202 195 208 202 194 199 203 207 208
207 218 217 213 214 216 217 214 210 206 206 206 206 207 208 207 207 207 209 210 212 210 207 204 203 208 206 208 215 224 220 213 216 221 203 203 218 205 204 214 211 207 209
217 217 222 227 221 223 224 224 222 218 214 214 213 212 211 213 212 212 214 213 215 215 214 215 217 214 210 213 207 221 229 224 214 222 208 211 219 218 222 219 207 205 208
233 223 224 228 229 227 230 231 230 228 226 223 220 219 219 216 217 217 218 218 219 221 221 223 225 222 218 216 210 213 224 227 223 225 218 213 221 219 223 219 209 200 192
259 241 229 233 233 233 231 233 233 232 232 232 232 228 227 226 223 223 221 223 224 226 226 227 226 223 224 217 216 216 223 223 231 227 224 218 220 225 234 225 206 202 186
264 255 233 232 233 232 232 233 231 232 232 234 236 235 234 233 230 229 227 226 228 227 228 228 224 224 224 222 228 219 226 222 223 220 220 220 224 224 237 234 210 203 191
284 254 235 230 232 232 233 234 232 229 228 231 236 237 237 236 233 233 234 229 230 230 229 229 225 225 223 224 230 228 233 235 225 216 222 222 225 230 249 234 212 199 200
291 249 238 225 222 226 231 231 231 232 227 240 240 243 241 238 235 232 234 233 231 231 231 232 231 226 226 230 226 228 231 237 223 220 224 223 223 231 238 231 211 203 196
289 241 231 221 223 223 227 227 227 231 227 237 240 244 241 238 239 231 233 236 232 231 234 235 233 228 224 224 223 221 228 234 225 223 221 220 223 225 230 234 222 212 203
285 243 219 226 225 224 222 221 225 226 229 234 240 245 247 244 240 232 233 238 237 233 233 231 233 225 221 224 216 221 213 220 220 226 224 219 221 220 223 233 225 219 214
243 221 207 207 208 214 213 218 221 222 226 231 235 239 242 245 243 240 241 240 243 242 239 234 228 231 221 221 223 215 181 204 222 226 226 222 222 222 224 228 224 221 218
165 158 163 170 174 177 186 200 211 222 229 234 241 247 249 248 246 243 245 242 244 247 244 237 229 232 225 226 217 221 226 218 195 203 227 221 222 224 223 225 228 223 219
166 166 167 163 167 175 187 196 211 230 236 239 241 243 246 249 248 245 243 245 244 243 244 238 233 231 228 230 231 227 224 223 227 217 206 216 221 222 222 225 228 224 218
169 170 169 167 160 166 178 185 195 217 234 240 242 243 247 248 249 242 239 243 243 242 244 243 237 235 233 229 233 235 235 227 219 218 220 222 216 220 216 220 223 222 219
Height
1487 1489 1491 1493 1495 1497 1499 1500 1500 1501 1503 1505 1506 1507 1508 1510 1511 1511 1512 1514 1516 1517 1519 1520 1521 1523 1524 1525 1526 1526 1527 1528 1531 1530 1532 1534 1534 1535 1536 1539 1540 1539 1541
1484 1487 1490 1493 1495 1496 1499 1500 1500 1501 1503 1504 1507 1508 1509 1511 1512 1513 1514 1515 1516 1518 1519 1520 1521 1523 1525 1527 1526 1527 1528 1528 1528 1534 1535 1535 1537 1537 1538 1541 1542 1542 1542
1480 1484 1487 1491 1494 1496 1498 1500 1500 1501 1503 1505 1507 1509 1510 1511 1513 1514 1515 1517 1518 1518 1520 1522 1523 1525 1525 1526 1527 1528 1528 1528 1530 1532 1535 1536 1537 1539 1541 1543 1544 1544 1545
1478 1482 1486 1488 1490 1495 1497 1499 1500 1502 1503 1505 1507 1509 1511 1512 1514 1516 1517 1518 1519 1520 1521 1522 1523 1524 1526 1526 1528 1530 1531 1531 1535 1535 1536 1536 1536 1540 1542 1544 1545 1545 1547
1478 1481 1485 1488 1489 1492 1496 1498 1500 1502 1504 1506 1508 1509 1511 1513 1515 1516 1518 1519 1520 1521 1522 1523 1524 1525 1527 1528 1528 1530 1532 1533 1534 1536 1536 1537 1538 1541 1544 1545 1546 1547 1549
1477 1480 1483 1486 1488 1489 1493 1496 1499 1501 1504 1506 1508 1509 1511 1513 1515 1517 1518 1519 1521 1522 1523 1523 1525 1526 1527 1529 1529 1529 1532 1534 1536 1536 1538 1540 1541 1543 1545 1546 1547 1548 1550
1475 1478 1481 1484 1487 1488 1491 1494 1497 1500 1503 1505 1507 1509 1511 1513 1516 1517 1518 1520 1521 1523 1524 1524 1525 1527 1528 1530 1530 1531 1534 1536 1537 1538 1539 1541 1542 1543 1545 1546 1548 1549 1551
1475 1477 1479 1482 1486 1488 1490 1493 1495 1499 1501 1504 1506 1508 1510 1512 1515 1517 1519 1520 1522 1523 1525 1525 1526 1527 1528 1530 1533 1533 1535 1537 1538 1539 1541 1543 1544 1544 1545 1547 1549 1551 1552
1476 1477 1479 1480 1485 1488 1490 1492 1494 1497 1500 1503 1505 1508 1510 1512 1514 1517 1519 1521 1522 1523 1524 1525 1526 1528 1529 1531 1532 1532 1536 1538 1539 1541 1542 1544 1545 1545 1547 1549 1550 1552 1553
1474 1475 1477 1479 1482 1486 1489 1491 1493 1496 1499 1501 1503 1506 1508 1511 1514 1516 1518 1520 1522 1523 1524 1524 1525 1527 1529 1531 1533 1534 1536 1539 1539 1541 1543 1544 1546 1546 1548 1549 1551 1553 1554
1473 1474 1476 1479 1480 1484 1487 1490 1492 1495 1497 1500 1502 1504 1506 1509 1512 1514 1516 1519 1521 1523 1524 1524 1525 1528 1529 1530 1533 1534 1535 1538 1540 1542 1543 1546 1547 1548 1549 1551 1552 1553 1554
1469 1472 1475 1478 1480 1483 1485 1488 1490 1492 1495 1497 1500 1502 1504 1507 1509 1512 1514 1517 1519 1521 1523 1524 1527 1528 1529 1529 1532 1534 1535 1538 1539 1541 1543 1544 1547 1549 1549 1550 1552 1553 1554
1466 1470 1472 1475 1478 1480 1483 1485 1488 1490 1492 1494 1497 1499 1501 1504 1507 1509 1512 1513 1516 1519 1521 1523 1525 1527 1529 1530 1531 1534 1534 1535 1539 1541 1543 1544 1547 1548 1549 1551 1552 1553 1554
1465 1467 1469 1471 1475 1477 1480 1482 1485 1487 1489 1491 1493 1496 1498 1501 1503 1505 1508 1510 1513 1516 1519 1521 1524 1526 1528 1528 1530 1532 1533 1535 1537 1540 1542 1544 1546 1547 1549 1551 1551 1552 1553
1467 1467 1468 1469 1471 1474 1477 1480 1482 1484 1487 1489 1491 1493 1496 1498 1500 1503 1505 1508 1510 1513 1517 1519 1522 1524 1526 1527 1529 1531 1533 1533 1536 1539 1541 1543 1545 1546 1548 1549 1551 1551 1552
1466 1466 1466 1467 1468 1469 1472 1476 1479 1481 1483 1485 1487 1489 1492 1495 1497 1500 1502 1505 1508 1511 1514 1517 1520 1522 1524 1525 1526 1529 1532 1534 1536 1538 1539 1541 1543 1546 1547 1548 1549 1551 1552
1459 1461 1461 1463 1464 1465 1466 1470 1473 1477 1479 1481 1484 1486 1488 1491 1493 1496 1499 1502 1504 1508 1511 1515 1517 1520 1522 1524 1525 1526 1527 1530 1533 1537 1538 1540 1542 1544 1546 1547 1549 1550 1550
1451 1449 1452 1455 1457 1460 1462 1463 1467 1471 1475 1477 1480 1483 1485 1487 1489 1492 1495 1498 1501 1505 1507 1510 1514 1516 1519 1521 1522 1523 1525 1528 1530 1534 1536 1539 1541 1542 1544 1546 1548 1550 1550
1441 1442 1442 1446 1450 1453 1456 1459 1461 1464 1470 1474 1476 1478 1481 1483 1484 1488 1490 1494 1498 1501 1503 1506 1509 1512 1515 1517 1520 1521 1523 1525 1527 1530 1534 1536 1539 1541 1542 1544 1546 1549 1549
1429 1430 1435 1438 1442 1446 1450 1452 1457 1461 1466 1470 1472 1474 1477 1479 1480 1483 1486 1489 1493 1496 1499 1501 1505 1508 1512 1515 1517 1519 1520 1522 1523 1527 1531 1534 1536 1538 1540 1542 1544 1547 1547
1421 1417 1425 1430 1434 1438 1442 1445 1450 1455 1459 1463 1466 1470 1473 1474 1477 1479 1480 1484 1487 1489 1492 1496 1499 1504 1507 1511 1515 1518 1518 1520 1522 1524 1527 1531 1533 1535 1538 1540 1542 1544 1545
1412 1412 1412 1422 1426 1431 1434 1439 1444 1449 1453 1456 1463 1465 1468 1470 1471 1473 1475 1478 1480 1484 1486 1488 1493 1498 1502 1506 1510 1514 1514 1519 1519 1521 1523 1527 1530 1533 1535 1537 1539 1541 1542
1408 1408 1406 1413 1419 1426 1430 1436 1441 1443 1448 1451 1455 1458 1461 1464 1468 1469 1470 1473 1474 1478 1480 1483 1487 1491 1495 1500 1503 1508 1509 1511 1514 1517 1519 1523 1527 1529 1532 1534 1536 1538 1540
1410 1411 1412 1413 1416 1420 1425 1430 1436 1439 1443 1446 1449 1453 1457 1459 1462 1463 1465 1467 1468 1471 1474 1478 1482 1485 1489 1492 1496 1500 1503 1504 1508 1511 1514 1516 1521 1524 1527 1529 1531 1534 1536
1406 1411 1416 1415 1416 1420 1425 1427 1432 1437 1439 1441 1443 1446 1449 1453 1454 1456 1458 1460 1462 1464 1468 1471 1476 1478 1481 1486 1488 1492 1497 1499 1501 1504 1506 1509 1514 1518 1521 1525 1528 1529 1532
1399 1405 1413 1415 1416 1419 1424 1425 1424 1431 1435 1437 1438 1439 1442 1446 1447 1449 1450 1452 1454 1457 1461 1464 1468 1471 1475 1478 1482 1485 1488 1490 1492 1497 1500 1503 1505 1510 1514 1520 1523 1526 1528